#timestamp,LO_Frequency,Hit,StdDev 
1641931215.3,286047000.0,N
1641931235.1,286047001.0,N
1641931255.9,286046999.9,N
1641931275.7,286047000.1,N
1641931295.5,286046998.1,N
1641931315.4,286047000.8,N
1641931335.2,286047000.4,N
1641931355.1,286047000.3,N
1641931356.0,286047000.3,N
1641931375.8,286046998.1,N
1641931395.6,286046998.7,N
1641931415.5,286046998.5,N
1641931435.3,286046999.1,N
1641931455.1,286046997.7,N
1641931475.9,286046997.7,N
1641931495.7,286046998.7,N
1641931515.6,286046998.3,N
1641931535.4,286047000.5,N
1641931555.2,286047000.7,N
1641931575.1,286046998.5,N
1641931576.0,286046998.5,N
1641931595.8,286046998.1,N
1641931615.6,286046998.4,N
1641931635.5,286046999.3,N
1641931655.3,286046999.5,N
1641931675.2,286046998.3,N
1641931695.9,286046999.4,N
1641931715.7,286046998.7,N
1641931735.6,286046999.0,N
1641931755.4,286046999.2,N
1641931775.2,286046998.1,N
1641931795.1,286047000.5,N
1641931796.0,286047000.5,N
1641931815.8,286047002.4,N
1641931835.7,286047001.8,N
1641931855.5,286047002.8,N
1641931875.3,286047000.4,N
1641931895.2,286047000.9,N
1641931915.0,286047000.1,N
1641931915.9,286047000.1,N
1641931935.8,286047000.3,N
1641931955.6,286047002.6,N
1641931975.4,286047000.1,N
1641931995.3,286047001.4,N
1641932015.1,286047002.4,N
1641932035.8,286047000.4,N
1641932055.7,286047002.4,N
1641932075.5,286047000.3,N
1641932095.4,286047001.5,N
1641932115.2,286047002.3,N
1641932135.0,286047001.4,N
1641932135.9,286047001.4,N
1641932155.8,286047002.2,N
1641932175.6,286047002.2,N
1641932195.4,286047000.3,N
1641932215.3,286047000.6,N
1641932235.1,286047000.2,N
1641932255.9,286047002.7,N
1641932275.7,286047002.7,N
1641932295.5,286047001.0,N
1641932315.4,286046999.6,N
1641932335.2,286046997.4,N
1641932355.0,286046996.6,N
1641932356.0,286046996.6,N
1641932375.8,286047006.1,Y
1641932395.6,286047010.4,P
1641932415.5,286047009.0,N
1641932435.3,286047013.2,P
1641932455.1,286047011.6,N
1641932475.9,286047010.7,N
1641932495.7,286047009.2,N
1641932515.6,286047006.8,N
1641932535.4,286047005.5,N
1641932555.2,286047004.1,N
1641932575.1,286047003.8,N
1641932576.0,286047003.8,N
1641932595.8,286047003.7,N
1641932615.6,286047001.4,N
1641932635.5,286047004.2,N
1641932655.3,286047001.4,N
1641932675.2,286047002.0,N
1641932695.9,286047000.2,N
1641932715.7,286047001.3,N
1641932735.6,286047001.3,N
1641932755.4,286047002.6,N
1641932775.2,286047001.7,N
1641932795.1,286047003.2,N
1641932796.0,286047003.2,N
1641932815.8,286047003.7,N
1641932835.7,286047001.7,N
1641932855.5,286047001.6,N
1641932875.3,286047001.4,N
1641932895.2,286047002.0,N
1641932915.0,286046999.7,N
1641932915.9,286046999.7,N
1641932935.7,286047001.1,N
1641932955.6,286047002.3,N
1641932975.4,286046998.2,N
1641932995.3,286046998.7,N
1641933015.1,286047000.8,N
1641933016.0,286047000.8,N
1641933035.8,286046998.1,N
1641933055.7,286046998.5,N
1641933075.5,286047000.6,N
1641933095.4,286047000.9,N
1641933115.2,286047000.5,N
1641933135.1,286047000.6,N
1641933136.0,286047000.6,N
1641933155.8,286047000.4,N
1641933175.6,286046998.5,N
1641933195.5,286046998.3,N
1641933215.3,286047001.2,N
1641933235.2,286047000.5,N
1641933255.9,286047000.5,N
1641933275.7,286047000.7,N
1641933295.6,286046999.9,N
1641933315.4,286047000.0,N
1641933335.2,286047002.8,N
1641933355.1,286046999.9,N
1641933356.0,286046999.9,N
1641933375.8,286047002.7,N
1641933395.7,286046999.8,N
1641933415.5,286047001.5,N
1641933435.3,286047001.5,N
1641933455.2,286047002.5,N
1641933475.9,286047002.1,N
1641933495.7,286047000.1,N
1641933515.6,286047001.0,N
1641933535.4,286047002.3,N
1641933555.3,286046999.7,N
1641933575.1,286046998.6,N
1641933576.0,286046998.6,N
1641933595.8,286046999.1,N
1641933615.7,286046998.9,N
1641933635.5,286047001.2,N
1641933655.3,286047000.8,N
1641933675.2,286047000.8,N
1641933695.0,286046998.2,N
1641933695.9,286046998.2,N
1641933715.8,286046999.1,N
1641933735.6,286046999.4,N
1641933755.4,286046999.0,N
1641933775.3,286047001.0,N
1641933795.1,286046998.5,N
1641933815.8,286046999.3,N
1641933835.7,286046996.5,N
1641933855.5,286046997.7,N
1641933875.4,286046996.7,N
1641933895.2,286046997.0,N
1641933915.0,286046999.0,N
1641933915.9,286046999.0,N
1641933935.8,286046995.2,Y
1641933955.6,286046997.1,P
1641933975.5,286046999.2,N
1641933995.3,286046999.5,N
1641934015.1,286046999.2,N
1641934035.9,286046996.6,Y
1641934055.7,286047000.7,P
1641934075.5,286047002.7,N
1641934095.4,286046998.5,N
1641934115.2,286046998.5,N
1641934135.1,286047000.9,N
1641934136.0,286047000.9,N
1641934155.8,286047000.9,N
1641934175.6,286047000.8,N
1641934195.5,286046999.4,N
1641934215.3,286046998.7,N
1641934235.1,286046999.7,N
1641934255.9,286046998.5,N
1641934275.7,286046998.3,N
1641934295.6,286046998.9,N
1641934315.4,286046998.1,N
1641934335.2,286047000.2,N
1641934355.1,286047002.2,N
1641934356.0,286047002.2,N
1641934375.8,286047002.3,N
1641934395.7,286047002.6,N
1641934415.5,286046999.7,N
1641934435.3,286047001.5,N
1641934455.2,286047002.4,N
1641934475.9,286047000.3,N
1641934495.7,286047001.1,N
1641934515.6,286046998.3,N
1641934535.4,286047001.2,N
1641934555.3,286046998.9,N
1641934575.1,286046998.4,N
1641934576.0,286046998.4,N
1641934595.8,286046998.1,N
1641934615.7,286047000.0,N
1641934635.5,286047000.0,N
1641934655.3,286047000.7,N
1641934675.2,286047000.8,N
1641934695.0,286047000.7,N
1641934695.9,286047000.7,N
1641934715.8,286047000.8,N
1641934735.6,286046998.6,N
1641934755.4,286047000.4,N
1641934775.3,286047000.5,N
1641934795.1,286047000.3,N
